LogoCoinalyze
    Ad-Free Version Anasayfa Piyasalar Fonlama Oranları
    Vadeli işlem verileri
    • Toplulaştırılmış veriler (Madeni Paralar)
    • Bireysel grafikler
    • Küresel grafikler
    Alarmlar
    TA
    Bitcoin Ethereum BNB Ripple Tron ZCash Dogecoin Monero UNUS SED LEO Chainlink Cardano Stellar Lumens Bitcoin Cash Litecoin Hedera Cronos Polkadot Ethereum Classic Algorand Quant Cosmos VeChain Dash Bitcoin SV BitTorrent Terra Decred Tezos Iota The Graph THETA MultiversX Decentraland NEO Chiliz Golem Basic Attention Token Horizen Qtum 0x DigiByte Beam RIF Token FTX Token FUNToken Holo aelf Zilliqa Ontology Nano Enjin Coin Ravencoin Verge Mask Network Siacoin Status WINk Waves IoTeX Power Ledger iExec RLC Steem Kyber Network Crystal Lisk Ardor Ark WOO Network IOST WAX Icon Storj Wanchain Loopring Bitcoin Diamond Augur AdEx Bitcoin Gold OmiseGO NEM MonaCoin BitShares Ren Komodo V Systems Nuls Mithril SOLVE Maker EOS Aion Nebulas HedgeTrade Bread Fetch.ai TomoChain Polygon Fantom Waltonchain GXChain Bytom Metaverse ETP MaidSafeCoin QASH
    Sırala:
    Daha
    • API
    • Mum Desenleri
    • Bağış
    • İletişim
    • Site Haritası
    • Gizlilik Politikası
    • Sorumluluk Reddi Beyanı
    • Theme:
    Türkçe
    • English
    • Français
    • Русский
    • Deutsch
    • Nederlands
    • Português (BR)
    • Español
    • 한국어
    • 简体中文
    • 日本語
     
    Giriş / Kaydol
    Markets/ Pepe/ PEPE ve EUR/ PEPEEUR Kraken
    İşlemler
    WL
    Sohbet
    İstatistikler
    Haberler
    ⦷
    AAA
    0.000002951 158998521.31375000 23:49:05
    0.000002947 162330196.86353001 23:19:56
    0.000002947 58652821.73174000 23:19:56
    0.000002947 5695300.00000000 23:19:56
    0.000002946 60983705.62117000 23:19:56
    0.000002946 5695300.00000000 23:19:56
    0.000002945 58159748.04753000 23:19:21
    0.000002941 158998521.31375000 23:15:33
    0.000002941 161586564.61577001 23:15:33
    0.000002941 58678823.08075000 23:15:33
    0.000002942 58668880.63431000 23:15:33
    0.000002940 5695300.00000000 23:15:32
    0.000002941 58696728.51688000 23:15:32
    0.000002941 128234343.42572001 23:15:32
    0.000002941 5695300.00000000 23:15:32
    0.000002942 50985723.99728000 23:15:32
    0.000002942 7638429.06000000 23:15:32
    0.000002942 5695300.00000000 23:15:32
    0.000002943 146599230.42693001 23:15:31
    0.000002943 5695300.00000000 23:15:31
    0.000002944 5695300.00000000 23:15:31
    0.000002945 58603305.76673000 23:15:31
    0.000002945 5695300.00000000 23:15:31
    0.000002941 161586564.61577001 23:07:20
    0.000002937 161586564.61577001 23:05:47
    0.000002937 5695300.00000000 23:04:43
    0.000002937 58770988.83628000 23:04:43
    0.000002936 161586564.61577001 23:04:21
    0.000002936 58792212.52933000 23:04:21
    0.000002936 2938487.73841000 23:04:21
    0.000002934 158998521.31375000 23:03:55
    0.000002934 5695300.00000000 23:03:55
    0.000002934 161586564.61577001 23:03:55
    0.000002935 161586564.61577001 23:03:55
    0.000002935 58805446.17250000 23:03:55
    0.000002935 2939488.92674000 23:03:55
    0.000002935 58805446.17250000 23:03:42
    0.000002935 5695300.00000000 23:03:42
    0.000002935 2939488.92674000 23:03:42
    0.000002935 58798326.24647000 23:03:42
    0.000002935 161586564.61577001 23:03:42
    0.000002935 5695300.00000000 23:03:42
    0.000002936 2938487.73841000 23:03:42
    0.000002935 58797916.43528000 23:03:33
    0.000002935 158998521.31375000 23:03:33
    0.000002935 5695300.00000000 23:03:33
    0.000002935 161586564.61577001 23:03:33
    0.000002936 58792212.52933000 23:03:33
    0.000002936 161586564.61577001 23:03:33
    0.000002936 5695300.00000000 23:03:33
    0.000002936 2938521.79836000 23:03:33
    0.000002931 5695300.00000000 22:50:46
    0.000002929 32450946.44562000 22:33:28
    0.000002929 2165397.38999000 22:33:28
    0.000002929 5695300.00000000 22:33:28
    0.000002924 59021977.41650000 22:22:07
    0.000002924 158998521.31375000 22:22:07
    0.000002924 161586564.61577001 22:22:07
    0.000002924 5695300.00000000 22:22:07
    0.000002923 28921043.83561000 22:21:40
    0.000002923 5695300.00000000 22:21:40
    0.000002924 5695300.00000000 22:21:40
    0.000002946 8500000.00000000 21:46:57
    0.000002952 2549504.83924000 21:44:24
    0.000002952 2549504.83924000 21:44:24
    0.000002952 2549504.83924000 21:44:24
    0.000002945 27426146.01019000 21:39:03
    0.000002940 7638429.06000000 21:26:02
    0.000002944 9108559.00000000 21:08:43
    0.000002944 6414471.00000000 21:08:42
    0.000002944 6377340.00000000 21:08:41
    0.000002944 6362818.00000000 21:08:40
    0.000002944 6346896.00000000 21:08:39
    0.000002944 5042765.00000000 21:08:36
    0.000002945 5034870.00000000 21:08:35
    0.000002945 5030565.00000000 21:08:34
    0.000002945 5026100.00000000 21:08:33
    0.000002945 5022459.00000000 21:08:32
    0.000002945 4576535.00000000 21:08:31
    0.000002945 442268.00000000 21:08:31
    0.000002945 5015732.00000000 21:08:30
    0.000002944 5012798.00000000 21:08:29
    0.000002943 5010138.00000000 21:08:28
    0.000002943 5007787.00000000 21:08:27
    0.000002942 5004599.00000000 21:08:26
    0.000002942 4538910.00000000 21:08:25
    0.000002942 463014.00000000 21:08:25
    0.000002942 4994986.00000000 21:08:24
    0.000002945 2925857.63999000 21:02:18
    0.000002950 5401709.59715000 20:54:52
    0.000002950 5401709.59715000 20:54:52
    0.000002950 5401709.59715000 20:54:52
    0.000002950 12225000.00000000 20:54:52
    0.000002950 9426100.00000000 20:54:51
    0.000002952 7638429.06000000 20:54:50
    0.000002954 58422371.21931000 20:54:50
    0.000002941 161586564.61577001 20:46:52
    0.000002941 158998521.31375000 20:46:52
    0.000002941 58679466.20653000 20:46:52
    0.000002948 6924681.13976000 20:42:23
    Çıkış
    AAA
    Yardım
    🙂 🤣 😎 🤗 😛 😉 😜 🤑 🤔 😑 😴 😕 🙃 😲 😇 🙁 😢 😬 😟 😠 🕺 🏃 💪 ✌ 👌 👍 👎 👏 👋 🤝 🍺 🍻 🐋 🐟 🦈 🗽 🚄 ✈ 🛑 🚀 🏦 🌚 ⭐ 🌞 ⚡ 🏆 💰 💲 🔨 ❓ ❗ 💯 🔶 🏁
    ☺
    Giriş veya Kaydol ve sohbet
    24 Saat
    Değişim
    -1.63%
    Hacim
    47,580,292,295
    Yüksek
    0.000003022
    Düşük
    0.000002904
    7 Gün
    Değişim
    -9.64%
    Hacim
    524,341,652,150
    Yüksek
    0.000003444
    Düşük
    0.000002902
    30 Gün
    Değişim
    +17.48%
    Hacim
    2,276,388,013,737
    Yüksek
    0.000003891
    Düşük
    0.000002190
    Pepe price rallies 25% as whale demand and futures interest surge
    Key takeaways Pepe has gained 25% this week, including a combined 22% advance over the previous two days. Seven whale transactions worth more than $1 million each occurred Thursday, the highest...
    coinjournal.net
    Aug 21, 2026 08:41
    PEPE Supply on Exchanges Just Took a Massive Hit – What’s Next?
    A drop in PEPE exchange balances has added to bullish expectations despite muted trader interest.
    cryptopotato.com
    Aug 6, 2026 20:02
    PEPE Exchange Outflows Hit Nearly 2-Year High as Whales Accumulate
    Pepe (PEPE) recorded its largest single-day exchange outflow since November 2024, with 4.54 trillion tokens leaving trading platforms, signaling that holders are moving supply away from immediate...
    beincrypto.com
    Aug 6, 2026 04:57
    Meme Coin Based on White House Shooter Conspiracy Rallies 320%
    $HENRY surged 300% after a 2023 Pepe tweet appeared to name the White House shooter, fueling a viral time-travel meme. The post Meme Coin Based on White House Shooter Conspiracy Rallies 320%...
    beincrypto.com
    Apr 27, 2026 16:11
    PEPE surges 4% as market sentiment improves, eyes Key resistance breakout
    Key takeaways Pepe extends gains on Wednesday, stretching its rally from the 50-day EMA. Derivatives data show heightened retail activity as risk-on sentiment returns to the market. Pepe (PEPE) is...
    coinjournal.net
    Apr 22, 2026 11:44
    Why The PEPE Price Could Stage A 55X Rally To Reach New $0.0001 ATH
    The PEPE price has now started to edge back into bullish conversations after the recent inflows into the crypto market. The last time PEPE’s weekly chart printed the kind of structure now...
    newsbtc.com
    Apr 21, 2026 15:30
    Pepe (PEPE) surges 9%, drawing interest from whales
    Key takeaways PEPE is up 9% in the last 24 hours, making it one of the best performers among the top 50 cryptocurrencies by market cap. The rally comes amid renewed interest from whales and retail...
    coinjournal.net
    Apr 16, 2026 07:40
    Murad Says SPX6900 (SPX) Is Primed for a Rally — Is He Right This Time?
    Crypto influencer Murad Mahmudov claims SPX6900 (SPX) is stabilizing at the same market cap level where Dogecoin (DOGE) and Pepe (PEPE) consolidated before their explosive rallies. The...
    beincrypto.com
    Apr 5, 2026 21:36
    The Shiba Inu Of This Cycle: Analyst Shares Why It Is Better To Buy PEPE Now
    In the bull market cycle of 2021-2022, the Shiba Inu meme coin made waves in a way that changed the face of meme coins forever. This came after Dogecoin’s initial 36,000% rally, and Shiba Inu...
    newsbtc.com
    Apr 4, 2026 07:30
    PEPE Explodes by 18% Amid Altcoin Rally, BTC Tapped $74K: Market Watch
    The frog-themed meme coin is today's biggest gainer, followed by TAO, DOT, and BONK.
    cryptopotato.com
    Mar 16, 2026 10:56
    Should PEPE traders brace for volatility as short squeeze potential builds?
    The memecoin market has seen its collective market capitalization drop by 48% over the past year, and 6.9% over the past month, according to CoinMarketCap. According to Glassnode, the memecoin...
    ambcrypto.com
    Mar 7, 2026 18:00
    Komutu sohbete yazmanız yeterlidir. Takma ad1'i gerçek takma adla değiştirin.
    • /ignore nick1 Sohbet kullanıcısını engelle
    • /unignore nick1 Sohbet kullanıcısının engelini kaldır.
    • /ignorelist Engellediğiniz sohbet kullanıcılarını gösterin